sat.trackr.live / text

‹ back to catalog

STARLINK-35954

NORAD 66885 · 2025-283H

PAYLOAD ACTIVE UNKNOWN

§ Identity

Operator
Country
US
Launch date
2025-12-04
Launch site
AFWTR
Launch vehicle
Mass (kg)
RCS (m²)

Purposes: comms

External: N2YO · Heavens-Above · Gunter

§ Orbital elements

Epoch: 2026-09-20T07:39:21.738240Z

Period
93.85 min
Inclination
53.1575°
Eccentricity
0.0001630
Mean motion
15.34399810 rev/d
Perigee alt
461.6 km
Apogee alt
463.8 km
Semi-major
6,840.8 km
B*
4.6325e-4
RAAN
196.5285°
Arg perigee
77.2178°
Mean anomaly
282.9007°
Rev number
4,569

§ Raw data

STARLINK-359541 66885U 25283H   26263.31900160  .00015307  00000+0  46325-3 0  99902 66885  53.1575 196.5285 0001630  77.2178 282.9007 15.34399810 45694

JSON: /api/v1/satellites/66885 · /tle

For live sub-satellite position, see the globe view (requires WebGL).

§ Visibility from observer

Set your observer location to see the next 7 days of passes ≥ 10°. The values pass through the URL so the page stays shareable.

No JS? Fill the form by hand. The geolocation button needs JavaScript.